Flag for Italy Weather past 2 weeks in Cagliari, Italy

64 °F

Passing clouds.

Feels Like: 64 °F
Forecast: 60 / 74 °F
Wind: 8 mph from Northwest

Location: Cagliari / Elmas

Current Time: Oct 10, 2015 at 10:26:05 PM

Latest Report: Oct 10, 2015 at 9:50 PM

Visibility: N/A

Pressure: 29.68 "Hg

Humidity: 88%

Dew point: 61 °F

Location of CagliariLocation

Historic Weather in Cagliari — Graph


Cagliari temperature yesterday

Maximum temperature yesterday: 68 °F (at 4:20 PM)
Minimum temperature yesterday: 61 °F (at 12:50 AM)
Average temperature yesterday: 64 °F

Past Weeks' High & Low Weather Summary

High86 °F (Oct 6, 4:20 PM)100% (Sep 27, 1:20 AM)30.21 "Hg (Sep 27, 1:20 AM)
Low55 °F (Oct 3, 6:50 AM)37% (Oct 7, 4:20 PM)29.50 "Hg (Oct 10, 6:20 AM)
Average70 °F79%29.98 "Hg
* Reported Sep 25 8:20 PM — Oct 10 8:50 PM, Cagliari, Weather by CustomWeather, © 2015

Note: Actual official high and low records may vary slightly from our data, if they occured in-between our weather recording intervals... More about our weather records


Cagliari weather history for previous 24 hours

Time TempWeatherWind HumidityBarometerVisibility
8:50 PM
Sat, Oct 10
66 °FPassing clouds.12 mph83%29.68 "HgN/A
8:20 PM64 °FPassing clouds.9 mph88%29.65 "HgN/A
7:50 PM63 °FScattered clouds.8 mph94%29.65 "HgN/A
7:20 PM64 °FHeavy rain. Partly sunny.16 mph88%29.65 "Hg2 mi
6:50 PM68 °FScattered showers. Partly sunny.7 mph78%29.62 "HgN/A
6:20 PM68 °FScattered clouds.10 mph78%29.62 "HgN/A
5:50 PM68 °FScattered clouds.10 mph73%29.59 "HgN/A
5:20 PM68 °FPartly sunny.16 mph73%29.59 "HgN/A
4:50 PM68 °FPartly sunny.17 mph73%29.59 "HgN/A
4:20 PM68 °FScattered clouds.20 mph73%29.59 "HgN/A
3:50 PM68 °FScattered clouds.23 mph73%29.56 "HgN/A
3:20 PM70 °FScattered clouds.23 mph73%29.56 "HgN/A
2:50 PM70 °FScattered clouds.23 mph73%29.56 "HgN/A
2:20 PM70 °FScattered clouds.20 mph73%29.56 "HgN/A
1:50 PM68 °FScattered clouds.17 mph78%29.56 "HgN/A
1:20 PM68 °FScattered clouds.21 mph78%29.56 "HgN/A
12:50 PM68 °FScattered clouds.21 mph78%29.56 "HgN/A
12:20 PM68 °FScattered clouds.15 mph83%29.56 "HgN/A
11:50 AM68 °FScattered clouds.14 mph88%29.53 "HgN/A
11:20 AM68 °FScattered clouds.7 mph88%29.53 "HgN/A
10:50 AM66 °FScattered clouds.2 mph88%29.53 "HgN/A
10:20 AM66 °FScattered clouds.6 mph94%29.53 "HgN/A
9:50 AM68 °FScattered clouds.7 mph88%29.53 "HgN/A
9:20 AM66 °FSprinkles. Scattered clouds.10 mph94%29.53 "HgN/A
8:50 AM68 °FScattered clouds.10 mph88%29.50 "HgN/A
8:20 AM68 °FPassing clouds.6 mph88%29.50 "HgN/A
7:50 AM68 °FPassing clouds.7 mph88%29.50 "HgN/A
7:20 AM66 °FPassing clouds.8 mph94%29.50 "HgN/A
6:50 AM68 °FPassing clouds.7 mph88%29.50 "HgN/A
6:20 AM66 °FPassing clouds.8 mph94%29.50 "HgN/A
5:50 AM66 °FPassing clouds.7 mph94%29.53 "HgN/A
5:20 AM64 °FThunderstorms. Passing clouds.7 mph100%29.56 "Hg2 mi
4:50 AM66 °FThundershowers. Passing clouds.8 mph88%29.56 "HgN/A
4:20 AM66 °FThundershowers. Passing clouds.10 mph83%29.59 "HgN/A
3:50 AM70 °FThundershowers. Passing clouds.7 mph83%29.59 "HgN/A
3:20 AM70 °FPassing clouds.14 mph83%29.62 "HgN/A
2:50 AM70 °FPassing clouds.12 mph83%29.62 "HgN/A
2:20 AM68 °FPassing clouds.9 mph88%29.62 "HgN/A
1:50 AM68 °FPassing clouds.2 mph83%29.62 "HgN/A
1:20 AM66 °FPassing clouds.6 mph88%29.65 "HgN/A
12:50 AM66 °FPassing clouds.3 mph88%29.65 "HgN/A
12:20 AM68 °FPassing clouds.5 mph83%29.68 "HgN/A
11:50 PM
Fri, Oct 9
68 °FPassing clouds.9 mph83%29.71 "HgN/A
10:50 PM68 °FPassing clouds.2 mph88%29.74 "HgN/A
10:20 PM68 °FPassing clouds.2 mph88%29.74 "HgN/A
Weather by CustomWeather, © 2015

See weather overviewHow to use our weather pages